LRAR Weather Reports


time (UTC)temp
F
wind
direction
speed
knots
gust
knots
rain 1hr
in
rain 24hr
in
rain mn
in
humidity
%
barometer
mb
20260503193459 50 240 2.6 0.0 0.00 0.00 0.00 62 1019.0
20260503191839 52 250 2.6 0.0 0.00 0.00 0.00 58 1019.0
20260503190338 52 250 2.6 0.0 0.00 0.00 0.00 58 1019.0
20260503184957 55 270 2.6 0.0 0.00 0.00 0.00 55 1019.0
20260503183338 55 270 2.6 0.0 0.00 0.00 0.00 55 1019.0
20260503181838 61 350 1.7 0.0 0.00 0.00 0.00 34 1018.0
20260503180338 61 350 1.7 0.0 0.00 0.00 0.00 34 1018.0
20260503174858 64 40 4.3 0.0 0.00 0.00 0.00 30 1018.0
20260503173403 64 40 4.3 0.0 0.00 0.00 0.00 30 1018.0
20260503171838 66 350 2.6 0.0 0.00 0.00 0.00 30 1018.0
20260503170339 66 350 2.6 0.0 0.00 0.00 0.00 30 1018.0
20260503150338 68 4.3 0.0 0.00 0.00 0.00 26 1019.0
20260503130339 68 250 4.3 0.0 0.00 0.00 0.00 28 1020.0
20260503110359 64 100 6.1 0.0 0.00 0.00 0.00 32 1021.0
20260503090359 61 140 5.2 0.0 0.00 0.00 0.00 42 1023.0
20260503080349 59 140 7.0 0.0 0.00 0.00 0.00 42 1023.0
20260503071837 55 170 5.2 0.0 0.00 0.00 0.00 55 1023.0
20260503070339 55 170 5.2 0.0 0.00 0.00 0.00 55 1023.0
20260503060338 52 200 7.0 0.0 0.00 0.00 0.00 62 1023.0
20260503054838 50 200 5.2 0.0 0.00 0.00 0.00 67 1022.0
20260503053338 50 200 5.2 0.0 0.00 0.00 0.00 67 1022.0
20260503051838 46 220 5.2 0.0 0.00 0.00 0.00 76 1022.0
20260503050338 46 220 5.2 0.0 0.00 0.00 0.00 76 1022.0
20260503044838 43 240 2.6 0.0 0.00 0.00 0.00 81 1022.0
20260503043339 43 240 2.6 0.0 0.00 0.00 0.00 81 1022.0
20260503041838 41 1.7 0.0 0.00 0.00 0.00 81 1022.0
20260503040401 41 1.7 0.0 0.00 0.00 0.00 81 1022.0
20260503034840 41 1.7 0.0 0.00 0.00 0.00 81 1021.0
20260503033338 41 1.7 0.0 0.00 0.00 0.00 81 1021.0
20260503031838 39 0.9 0.0 0.00 0.00 0.00 81 1021.0
20260503030338 39 0.9 0.0 0.00 0.00 0.00 81 1021.0
20260503024853 43 200 2.6 0.0 0.00 0.00 0.00 76 1021.0
20260503023339 43 200 2.6 0.0 0.00 0.00 0.00 76 1021.0
20260503021838 43 130 2.6 0.0 0.00 0.00 0.00 71 1021.0
20260503020338 43 130 2.6 0.0 0.00 0.00 0.00 71 1021.0
20260503014838 43 160 4.3 0.0 0.00 0.00 0.00 71 1021.0
20260503013338 43 160 4.3 0.0 0.00 0.00 0.00 71 1021.0
20260503011838 43 150 7.0 0.0 0.00 0.00 0.00 71 1021.0
20260503010338 43 150 7.0 0.0 0.00 0.00 0.00 71 1021.0
20260503004838 45 150 6.1 0.0 0.00 0.00 0.00 66 1020.0
20260503003338 45 150 6.1 0.0 0.00 0.00 0.00 66 1020.0
20260503001838 45 130 7.0 0.0 0.00 0.00 0.00 71 1020.0
20260503000338 45 130 7.0 0.0 0.00 0.00 0.00 71 1020.0
20260502234838 45 140 0.9 0.0 0.00 0.00 0.00 66 1020.0
20260502233338 45 140 0.9 0.0 0.00 0.00 0.00 66 1020.0
20260502231839 43 170 2.6 0.0 0.00 0.00 0.00 76 1020.0
20260502230339 43 170 2.6 0.0 0.00 0.00 0.00 76 1020.0
20260502224838 48 1.7 0.0 0.00 0.00 0.00 58 1020.0
20260502223338 48 1.7 0.0 0.00 0.00 0.00 58 1020.0
20260502221838 45 150 6.1 0.0 0.00 0.00 0.00 71 1020.0
20260502220338 45 150 6.1 0.0 0.00 0.00 0.00 71 1020.0
20260502214838 48 180 1.7 0.0 0.00 0.00 0.00 66 1020.0
20260502213339 48 180 1.7 0.0 0.00 0.00 0.00 66 1020.0
20260502211838 50 170 0.9 0.0 0.00 0.00 0.00 58 1020.0
20260502210338 50 170 0.9 0.0 0.00 0.00 0.00 58 1020.0
20260502204838 48 160 4.3 0.0 0.00 0.00 0.00 66 1020.0
20260502203338 48 160 4.3 0.0 0.00 0.00 0.00 66 1020.0
20260502201838 54 130 2.6 0.0 0.00 0.00 0.00 51 1020.0
20260502200338 54 130 2.6 0.0 0.00 0.00 0.00 51 1020.0
20260502194838 57 100 5.2 0.0 0.00 0.00 0.00 44 1020.0